EW1647 Weather Reports


time (UTC)temp
C
wind
direction
speed
KPH
gust
KPH
rain 1hr
cm
rain 24hr
cm
rain mn
cm
humidity
%
barometer
mb
20260503223047 25 58 4.8 14.5 0.00 0.00 0.00 43 1011.5
20260503221544 25 5 6.4 16.1 0.00 0.00 0.00 43 1011.7
20260503220041 25 33 4.8 14.5 0.00 0.00 0.00 43 1011.8
20260503214545 24 5 6.4 12.9 0.00 0.00 0.00 45 1012.0
20260503213052 23 324 4.8 12.9 0.00 0.00 0.00 47 1012.2
20260503211538 23 329 8.0 16.1 0.00 0.00 0.00 48 1012.3
20260503210028 23 299 6.4 17.7 0.00 0.00 0.00 50 1012.4
20260503204536 23 16 6.4 14.5 0.00 0.00 0.00 52 1012.6
20260503203026 22 12 4.8 16.1 0.00 0.00 0.00 51 1012.8
20260503201524 22 35 3.2 6.4 0.00 0.00 0.00 54 1012.9
20260503200015 21 38 4.8 17.7 0.00 0.00 0.00 55 1013.1
20260503194518 21 38 4.8 16.1 0.00 0.00 0.00 60 1013.4
20260503193007 20 29 4.8 16.1 0.00 0.00 0.00 60 1013.6
20260503191503 19 19 4.8 9.7 0.00 0.00 0.00 62 1013.8
20260503190101 19 38 6.4 14.5 0.00 0.00 0.00 63 1014.0
20260503184628 18 13 6.4 12.9 0.00 0.00 0.00 66 1014.0
20260503183104 18 16 4.8 9.7 0.00 0.00 0.00 69 1014.2
20260503181552 17 26 3.2 9.7 0.00 0.00 0.00 70 1014.3
20260503180050 17 56 3.2 9.7 0.00 0.00 0.00 69 1014.4
20260503174603 17 34 1.6 9.7 0.00 0.00 0.00 69 1014.5
20260503173100 17 22 6.4 14.5 0.00 0.00 0.00 69 1014.5
20260503171548 17 36 4.8 14.5 0.00 0.00 0.00 71 1014.6
20260503081559 16 94 0.0 3.2 0.00 0.00 0.00 63 1014.9
20260503071603 17 61 6.4 14.5 0.00 0.00 0.00 57 1014.7
20260503054552 17 355 6.4 14.5 0.00 0.00 0.00 57 1014.6
20260503053040 16 24 6.4 16.1 0.00 0.00 0.00 60 1014.6
20260503051546 16 52 6.4 16.1 0.00 0.00 0.00 63 1014.5
20260503050036 15 69 6.4 16.1 0.00 0.00 0.00 68 1014.4
20260503044536 15 79 6.4 14.5 0.00 0.00 0.00 71 1014.4
20260503043035 15 74 4.8 9.7 0.00 0.00 0.00 71 1014.3
20260503041535 16 71 0.0 0.0 0.00 0.00 0.00 69 1014.2
20260503040035 16 71 0.0 4.8 0.00 0.00 0.00 67 1014.1
20260503034543 17 70 3.2 8.0 0.00 0.00 0.00 66 1013.7
20260503033045 17 67 4.8 9.7 0.00 0.00 0.00 64 1013.6
20260503031537 17 50 4.8 17.7 0.00 0.00 0.00 63 1013.4
20260503030036 18 9 12.9 30.6 0.00 0.00 0.00 62 1013.4
20260503024542 18 78 6.4 22.5 0.00 0.00 0.00 62 1013.3
20260503023031 18 90 4.8 12.9 0.00 0.00 0.00 61 1013.1
20260503021533 19 179 1.6 8.0 0.00 0.00 0.00 60 1013.1
20260503020030 20 38 3.2 17.7 0.00 0.00 0.00 57 1013.2
20260503014529 20 288 4.8 20.9 0.00 0.00 0.00 56 1013.1
20260503013034 21 59 3.2 12.9 0.00 0.00 0.00 56 1013.2
20260503011527 21 13 6.4 22.5 0.00 0.00 0.00 55 1013.3
20260503010030 21 21 4.8 16.1 0.00 0.00 0.00 55 1013.4
20260503004525 21 9 6.4 16.1 0.00 0.00 0.00 58 1013.4
20260503003033 21 5 6.4 14.5 0.00 0.00 0.00 59 1013.5
20260503001522 21 350 4.8 16.1 0.00 0.00 0.00 59 1013.5
20260503000022 21 349 3.2 19.3 0.00 0.00 0.00 61 1013.5
20260502234521 21 327 4.8 14.5 0.00 0.00 0.00 61 1013.7
20260502233018 21 316 8.0 16.1 0.00 0.00 0.00 57 1014.0
20260502231516 21 325 9.7 17.7 0.00 0.00 0.00 58 1014.3
20260502230012 21 329 9.7 16.1 0.00 0.00 0.00 59 1014.4
20260502224509 21 321 8.0 16.1 0.00 0.00 0.00 60 1014.7